Location: Charentilly
(47.4702°N, 0.6096°E)
Time: 20:57:28
(UTC+02:00)

ISS - Visible Passes

Search period start: 13 May 2021 00:00
Search period end: 23 May 2021 00:00
Orbit: 417 x 422 km, 51.6° (Epoch: 13 May)

Date Brightness Start Highest point End Pass type
(mag) Time Alt. Az. Time Alt. Az. Time Alt. Az.
13 May -2.2 02:05:02 35° NE 02:05:02 35° NE 02:07:21 10° ENE visible
13 May -2.5 03:38:03 10° WNW 03:41:18 42° N 03:44:33 10° E visible
13 May -3.8 05:14:54 10° WNW 05:18:17 71° SSW 05:21:39 10° SE visible
14 May -1.6 01:18:38 21° ENE 01:18:38 21° ENE 01:19:54 10° ENE visible
14 May -2.4 02:51:31 17° WNW 02:53:45 39° N 02:56:58 10° ENE visible
14 May -3.7 04:27:27 10° WNW 04:30:51 82° NNE 04:34:13 10° ESE visible
14 May -2.7 22:49:43 10° SSW 22:52:30 24° SE 22:55:18 10° E visible
15 May -3.6 00:25:43 10° WSW 00:29:05 72° NNW 00:32:27 10° ENE visible
15 May -2.3 02:03:00 10° WNW 02:06:12 38° N 02:09:24 10° ENE visible
15 May -3.3 03:40:01 10° WNW 03:43:22 62° NNE 03:46:44 10° E visible
15 May -3.0 05:17:00 10° W 05:20:03 31° SW 05:23:04 10° SSE visible
15 May -2.1 22:03:05 10° S 22:05:14 16° SE 22:07:23 10° E visible
15 May -3.9 23:38:15 10° WSW 23:41:37 83° SSE 23:45:00 10° ENE visible
16 May -2.4 01:15:26 10° WNW 01:18:39 40° N 01:21:52 10° ENE visible
16 May -2.8 02:52:34 10° WNW 02:55:51 49° NNE 02:59:10 10° E visible
16 May -3.6 04:29:26 10° WNW 04:32:42 47° SSW 04:35:57 10° SE visible
16 May -3.7 22:50:54 10° SW 22:54:12 56° SSE 22:57:32 10° ENE visible
17 May -2.7 00:27:50 10° W 00:31:06 46° NNW 00:34:23 10° ENE visible
17 May -2.5 02:05:05 10° WNW 02:08:20 42° N 02:11:34 10° E visible
17 May -3.9 03:41:56 10° WNW 03:45:18 70° SSW 03:48:39 10° SE visible
17 May -1.9 05:19:55 10° WSW 05:21:36 13° SW 05:23:18 10° SSW visible
17 May -3.2 22:03:42 10° SSW 22:06:50 37° SE 22:09:59 10° ENE visible
17 May -3.0 23:40:16 10° W 23:43:35 55° NNW 23:46:55 10° ENE visible
18 May -2.4 01:17:34 10° WNW 01:20:46 39° N 01:22:54 18° ENE visible
18 May -1.8 02:54:28 10° WNW 02:55:48 22° WNW 02:55:48 22° WNW visible
18 May -3.5 22:52:43 10° WSW 22:56:05 72° NNW 22:59:27 10° ENE visible
19 May -2.3 00:30:01 10° WNW 00:33:12 38° N 00:36:24 10° ENE visible
19 May -2.6 02:07:01 10° WNW 02:09:24 40° NW 02:09:24 40° NW visible
19 May -2.4 23:42:25 10° WNW 23:45:39 40° N 23:48:52 10° ENE visible
20 May -2.9 01:19:34 10° WNW 01:22:51 49° NNE 01:23:14 46° NE visible
20 May -2.6 22:54:50 10° W 22:58:05 45° NNW 23:01:22 10° ENE visible
21 May -2.6 00:32:04 10° WNW 00:35:18 42° N 00:37:09 21° ENE visible
21 May -1.6 02:08:55 10° WNW 02:10:05 20° WNW 02:10:05 20° WNW visible
21 May -2.9 22:07:14 10° W 22:10:33 55° NNW 22:13:53 10° ENE visible
21 May -2.4 23:44:33 10° WNW 23:47:44 39° N 23:50:57 10° ENE visible
22 May -3.0 01:21:26 10° WNW 01:24:02 49° WNW 01:24:02 49° WNW visible
22 May -2.3 22:56:59 10° WNW 23:00:10 38° N 23:03:22 10° ENE visible
